Effective Sunday, March 17, 2024, the National Weather Service National Data Buoy Center will discontinue its Dial-A-Buoy Interactive Voice Response system. For more information, see Service Change Notice 24-06 (PDF).

Station MRNA2 - Marmion Island, AK Image indicating link to RSS feed of recent meteorological observations for station MRNA2


Conditions at MRNA2 as of
(4:52 pm AKST on 03/02/2024)
0152 GMT on 03/03/2024:
     

Click on the graph icon in the table below to see a time series plot of the last five days of that observation.

5-day plot - Wind Direction Wind Direction (WDIR): N ( 360 deg true )
5-day plot - Wind Speed Wind Speed (WSPD): 29.9 kts
5-day plot - Wind Gust Wind Gust (GST): 46.0 kts
5-day plot - Air Temperature Air Temperature (ATMP): 15.6 °F
5-day plot - Dew Point Dew Point (DEWP): -1.1 °F
5-day plot - Wind Chill Wind Chill (CHILL): -5.8 °F
5-day plot - Wind Speed at 10 Meters Wind Speed at 10 meters (WSPD10M): 33.0 kts
5-day plot - Wind Speed at 20 Meters Wind Speed at 20 meters (WSPD20M): 36.9 kts
5-day plot -  Wind Speed, Wind Gust and Atmospheric Pressure Combined plot of Wind Speed, Gust, and Air Pressure
Previous observations
TIME
(AKST)
5-day plot - Wind Direction
WDIR
 
5-day plot - Wind Speed
WSPD
kts
5-day plot - Wind Gust
GST
kts
5-day plot - Wave Height
WVHT
ft
5-day plot - Dominant Wave Period
DPD
sec
5-day plot - Average Wave Period
APD
sec
5-day plot - Mean Wave Direction
MWD
 
5-day plot - Atmospheric Pressure
PRES
in
5-day plot - Pressure Tendency
PTDY
in
5-day plot - Air Temperature
ATMP
°F
5-day plot - Water Temperature
WTMP
°F
5-day plot - Dew Point
DEWP
°F
5-day plot - Salinity
SAL
psu
5-day plot - Visibility
VIS
nmi
5-day plot - Tide (above MLLW)
TIDE
ft
2024-03-02 04:42 pm N 28.0 44.1------ 15.8- -0.9---
2024-03-02 04:32 pm N 31.1 49.0------ 16.0- -1.1---
2024-03-02 04:22 pm N 31.1 49.0------ 16.2- -0.6---
2024-03-02 04:12 pm N 32.1 51.1------ 16.3- 0.1---
2024-03-02 04:02 pm N 28.0 47.0------ 16.0- -1.1---
2024-03-02 03:52 pm N 27.0 46.0------ 16.5- 0.1---
2024-03-02 03:42 pm N 33.0 52.1------ 16.3- -0.2---
2024-03-02 03:32 pm N 29.9 56.9------ 16.2- -1.1---
2024-03-02 03:22 pm N 28.9 47.0------ 16.5- 0.1---
2024-03-02 03:12 pm N 29.9 48.0------ 16.3- -0.8---
2024-03-02 02:52 pm N 33.0 55.9------ 16.3- -0.6---
2024-03-02 02:42 pm N 33.0 54.0------ 16.3- -0.8---
2024-03-02 02:32 pm N 38.1 59.1------ 16.7- -0.2---
2024-03-02 02:22 pm N 35.9 59.1------ 16.5- -0.8---
2024-03-02 02:12 pm N 36.9 62.0------ 16.7- -0.2---
2024-03-02 02:02 pm N 35.9 65.1------ 16.7- -0.4---
2024-03-02 01:52 pm N 27.0 45.1------ 16.9- -1.3---
2024-03-02 01:42 pm N 29.9 56.9------ 17.4- -1.7---
2024-03-02 01:32 pm N 32.1 52.1------ 16.7- -0.4---
2024-03-02 01:22 pm N 33.0 52.1------ 16.7- -0.4---
2024-03-02 01:12 pm N 35.0 55.9------ 16.7- 0.3---
2024-03-02 01:02 pm N 29.9 56.9------ 16.5- -0.2---
2024-03-02 12:52 pm N 32.1 58.1------ 16.5- -0.8---
2024-03-02 12:42 pm N 32.1 55.0------ 16.5- -0.6---
2024-03-02 12:32 pm N 35.9 54.0------ 16.3- -0.2---
2024-03-02 12:22 pm N 31.1 52.1------ 16.3- -0.8---
2024-03-02 12:12 pm N 31.1 59.1------ 16.9- 0.3---
2024-03-02 12:02 pm N 31.1 59.1------ 16.5- -0.6---
2024-03-02 11:52 am N 29.9 54.0------ 16.7- -0.4---
2024-03-02 11:42 am N 32.1 53.0------ 17.1- 0.7---
2024-03-02 11:32 am N 32.1 55.9------ 16.7- -0.4---
2024-03-02 11:22 am N 34.0 53.0------ 16.9- 0.7---
2024-03-02 11:12 am N 34.0 63.9------ 16.2- -1.1---
2024-03-02 11:02 am N 38.1 60.0------ 16.3- 0.1---
2024-03-02 10:52 am N 35.0 62.0------ 16.9- 0.3---
2024-03-02 10:42 am N 36.9 63.9------ 16.3- 0.1---
2024-03-02 10:32 am N 34.0 61.0------ 16.3- -0.0---
2024-03-02 10:22 am N 31.1 60.0------ 16.7- 0.1---
2024-03-02 10:12 am N 32.1 54.0------ 16.5- -0.0---
2024-03-02 10:02 am N 31.1 56.9------ 16.7- 0.5---
2024-03-02 09:52 am N 33.0 59.1------ 16.9- 0.7---
2024-03-02 09:42 am N 36.9 51.1------ 16.9- 0.5---
2024-03-02 09:32 am N 33.0 55.9------ 16.9- 0.7---
2024-03-02 09:22 am N 36.9 56.9------ 17.1- 0.3---
2024-03-02 09:12 am N 35.0 54.0------ 17.2- 0.9---
2024-03-02 09:02 am N 35.9 56.9------ 17.2- 0.5---
2024-03-02 08:52 am N 31.1 55.0------ 17.1- -0.0---
2024-03-02 08:42 am N 35.9 55.0------ 17.2- 0.7---
2024-03-02 08:32 am N 35.0 53.0------ 17.2- 0.5---
2024-03-02 08:22 am N 35.0 51.1------ 17.2- 0.7---
2024-03-02 08:12 am N 35.0 60.0------ 17.2- 1.0---
2024-03-02 08:02 am N 32.1 58.1------ 17.2- 1.0---
2024-03-02 07:52 am N 35.0 61.0------ 17.6- 1.6---
2024-03-02 07:42 am N 35.9 54.0------ 17.4- 1.4---
2024-03-02 07:32 am N 35.0 51.1------ 17.4- 1.2---
2024-03-02 07:22 am N 33.0 55.0------ 17.4- 0.7---
2024-03-02 07:12 am N 31.1 53.0------ 17.8- 1.2---
2024-03-02 07:02 am N 36.9 59.1------ 17.6- 1.6---
2024-03-02 06:52 am N 34.0 59.1------ 17.2- 0.9---
2024-03-02 06:42 am N 35.9 62.0------ 17.6- 1.2---
2024-03-02 06:32 am N 39.0 56.9------ 17.8- 1.2---
2024-03-02 06:22 am N 35.0 58.1------ 18.0- 2.1---
2024-03-02 06:12 am N 34.0 55.0------ 18.1- 2.5---
2024-03-02 06:02 am N 35.9 52.1------ 18.3- 2.1---
2024-03-02 05:52 am N 33.0 63.9------ 18.0- 1.4---
2024-03-02 05:42 am N 34.0 55.0------ 18.3- 2.1---
2024-03-02 05:32 am N 33.0 56.9------ 18.7- 2.3---
2024-03-02 05:22 am N 38.1 63.9------ 18.3- 1.9---
2024-03-02 05:12 am N 35.0 62.0------ 18.5- 1.9---
2024-03-02 05:02 am N 34.0 60.0------ 18.7- 2.8---
2024-03-02 04:52 am N 35.0 59.1------ 19.0- 2.3---
2024-03-02 04:42 am N 35.9 63.9------ 18.9- 2.7---
2024-03-02 04:32 am N 35.0 62.0------ 19.0- 2.8---
2024-03-02 04:22 am N 33.0 54.0------ 19.0- 2.3---
2024-03-02 04:12 am N 35.0 60.0------ 19.2- 3.0---
2024-03-02 04:02 am N 32.1 46.0------ 19.0- 2.5---
2024-03-02 03:52 am N 31.1 51.1------ 19.4- 2.1---
2024-03-02 03:42 am N 35.0 58.1------ 19.2- 2.8---
2024-03-02 03:32 am N 36.9 59.1------ 19.6- 2.8---
2024-03-02 03:22 am N 35.0 54.0------ 19.6- 3.0---
2024-03-02 03:12 am N 35.9 61.0------ 19.6- 2.1---
2024-03-02 03:02 am N 34.0 55.9------ 19.8- 2.8---
2024-03-02 02:52 am N 35.9 58.1------ 20.1- 3.6---
2024-03-02 02:42 am N 35.0 53.0------ 20.1- 3.2---
2024-03-02 02:32 am N 35.0 53.0------ 20.3- 3.7---
2024-03-02 02:22 am N 32.1 48.0------ 20.5- 4.3---
2024-03-02 02:12 am N 33.0 52.1------ 20.5- 3.9---
2024-03-02 02:02 am N 36.9 63.9------ 20.3- 3.4---
2024-03-02 01:52 am N 35.9 62.9------ 20.5- 3.2---
2024-03-02 01:42 am N 32.1 59.1------ 20.7- 3.7---
2024-03-02 01:32 am N 38.1 55.9------ 21.0- 4.6---
2024-03-02 01:22 am N 31.1 55.0------ 20.7- 4.1---
2024-03-02 01:12 am N 35.0 54.0------ 21.0- 4.6---
2024-03-02 01:02 am N 35.9 59.1------ 21.0- 4.5---
2024-03-02 12:52 am N 36.9 56.9------ 21.0- 4.6---
2024-03-02 12:42 am N 35.9 59.1------ 21.2- 4.3---
2024-03-02 12:32 am N 33.0 49.9------ 21.2- 5.0---
2024-03-02 12:22 am N 38.1 59.1------ 21.4- 4.1---
2024-03-02 12:12 am N 33.0 54.0------ 21.2- 4.3---
2024-03-02 12:02 am N 28.9 48.0------ 21.7- 5.0---
2024-03-01 11:52 pm N 33.0 54.0------ 21.6- 4.5---
2024-03-01 11:42 pm N 31.1 52.1------ 21.4- 4.6---
2024-03-01 11:32 pm N 29.9 51.1------ 21.7- 5.4---
2024-03-01 11:22 pm N 32.1 47.0------ 21.7- 5.7---
2024-03-01 11:12 pm N 31.1 47.0------ 21.7- 5.4---
2024-03-01 11:02 pm N 28.0 46.0------ 21.9- 5.7---
2024-03-01 10:52 pm N 29.9 48.0------ 21.9- 5.4---
2024-03-01 10:42 pm N 27.0 42.9------ 21.9- 5.0---
2024-03-01 10:32 pm N 29.9 49.0------ 21.9- 4.8---
2024-03-01 10:22 pm N 29.9 45.1------ 21.9- 5.7---
2024-03-01 10:12 pm N 33.0 52.1------ 21.9- 5.2---
2024-03-01 10:02 pm N 34.0 49.9------ 21.9- 5.4---
2024-03-01 09:52 pm N 29.9 46.0------ 22.1- 6.4---
2024-03-01 09:42 pm N 29.9 49.0------ 21.9- 5.0---
2024-03-01 09:32 pm N 32.1 71.1------ 21.9- 5.2---
2024-03-01 09:22 pm N 34.0 53.0------ 21.9- 5.2---
2024-03-01 09:12 pm N 35.0 55.0------ 21.9- 5.0---
2024-03-01 09:02 pm N 33.0 52.1------ 22.1- 5.0---
2024-03-01 08:52 pm N 33.0 52.1------ 22.1- 4.6---
2024-03-01 08:42 pm N 33.0 54.0------ 22.1- 5.0---
2024-03-01 08:32 pm N 32.1 55.0------ 21.7- 4.3---
2024-03-01 08:22 pm N 36.9 61.0------ 22.1- 4.6---
2024-03-01 08:12 pm N 35.0 58.1------ 21.7- 4.3---
2024-03-01 08:02 pm N 33.0 53.0------ 22.3- 5.9---
2024-03-01 07:52 pm N 32.1 48.0------ 22.1- 4.6---
2024-03-01 07:42 pm N 32.1 49.0------ 22.5- 5.4---
2024-03-01 07:32 pm N 31.1 47.0------ 22.5- 5.9---
2024-03-01 07:22 pm N 31.1 49.9------ 22.3- 4.8---
2024-03-01 07:12 pm N 35.0 52.1------ 22.3- 4.6---
2024-03-01 07:02 pm N 35.0 55.9------ 22.3- 5.4---
2024-03-01 06:52 pm N 33.0 51.1------ 22.3- 5.7---
2024-03-01 06:42 pm N 35.0 49.9------ 22.1- 5.0---
2024-03-01 06:32 pm N 29.9 48.0------ 22.3- 6.1---
2024-03-01 06:22 pm N 32.1 47.0------ 22.3- 6.4---
2024-03-01 06:12 pm N 35.0 55.0------ 22.1- 5.5---
2024-03-01 06:02 pm N 33.0 52.1------ 22.3- 5.9---
2024-03-01 05:52 pm N 33.0 52.1------ 22.1- 5.5---
2024-03-01 05:42 pm N 38.1 56.9------ 22.3- 4.6---
2024-03-01 05:32 pm N 35.9 47.0------ 22.5- 5.4---
2024-03-01 05:22 pm N 32.1 42.0------ 22.5- 5.7---
2024-03-01 05:12 pm N 29.9 42.9------ 22.8- 6.3---
2024-03-01 05:02 pm N 28.9 41.0------ 22.8- 6.6---
2024-03-01 04:52 pm N 31.1 47.0------ 22.8- 6.4---